• In Russia
  • List of Countries
  • For 7 days
  • Water Temperature
  • Weather Map
  • Weather Widgets
  • user-avatar
    Login

    Hourly Weather Solden

    Today, 22 February, Saturday

    Time Temperature Precipitation Wind Pressure Humidity
    00:00 -6°C° 0 mm 1 mps 585 mmHg 51%
    01:00 -6°C° 0 mm 1 mps 585 mmHg 51%
    02:00 -6°C° 0 mm 1 mps 585 mmHg 51%
    03:00 -6°C° 0 mm 1 mps 585 mmHg 51%
    04:00 -6°C° 0 mm 1 mps 585 mmHg 52%
    05:00 -6°C° 0 mm 1 mps 585 mmHg 52%
    06:00 -6°C° 0 mm 1 mps 585 mmHg 52%
    07:00 -6°C° 0 mm 1 mps 586 mmHg 53%
    08:00 -3°C° 0 mm 1 mps 587 mmHg 53%
    09:00 -2°C° 0 mm 1 mps 587 mmHg 54%
    10:00 0°C° 0 mm 1 mps 588 mmHg 54%
    11:00 +1°C° 0 mm 1 mps 589 mmHg 55%
    12:00 +2°C° 0 mm 1 mps 589 mmHg 57%
    13:00 +3°C° 0 mm 1 mps 589 mmHg 58%
    14:00 +3°C° 0 mm 1 mps 589 mmHg 59%
    15:00 +2°C° 0 mm 1 mps 588 mmHg 60%
    16:00 +2°C° 0 mm 1 mps 588 mmHg 61%
    17:00 +1°C° 0 mm 1 mps 587 mmHg 60%
    18:00 0°C° 0 mm 1 mps 587 mmHg 59%
    19:00 -2°C° 0 mm 1 mps 586 mmHg 59%
    20:00 -2°C° 0 mm 1 mps 587 mmHg 56%
    21:00 -2°C° 0 mm 1 mps 587 mmHg 54%
    22:00 -2°C° 0 mm 1 mps 587 mmHg 52%
    23:00 -2°C° 0 mm 1 mps 587 mmHg 51%

    Tomorrow, 23 February, Sunday

    Time Temperature Precipitation Wind Pressure Humidity
    00:00 -2°C° 0 mm 1 mps 587 mmHg 50%
    01:00 -2°C° 0 mm 1 mps 587 mmHg 49%
    02:00 -2°C° 0 mm 1 mps 586 mmHg 49%
    03:00 -4°C° 0 mm 2 mps 586 mmHg 49%
    04:00 -4°C° 0 mm 2 mps 586 mmHg 49%
    05:00 -4°C° 0 mm 2 mps 586 mmHg 51%
    06:00 -4°C° 0 mm 2 mps 586 mmHg 53%
    07:00 -4°C° 0 mm 2 mps 586 mmHg 56%
    08:00 -2°C° 0 mm 2 mps 586 mmHg 57%
    09:00 +1°C° 0 mm 1 mps 587 mmHg 59%
    10:00 +3°C° 0 mm 1 mps 587 mmHg 61%
    11:00 +4°C° 0 mm 1 mps 587 mmHg 62%
    12:00 +4°C° 0 mm 1 mps 587 mmHg 62%
    13:00 +5°C° 0 mm 1 mps 587 mmHg 63%
    14:00 +5°C° 0 mm 1 mps 587 mmHg 66%
    15:00 +5°C° 0 mm 1 mps 586 mmHg 69%
    16:00 +4°C° 0 mm 1 mps 585 mmHg 72%
    17:00 +3°C° 0 mm 1 mps 585 mmHg 76%
    18:00 +1°C° 0 mm 2 mps 584 mmHg 79%
    19:00 -1°C° 0 mm 2 mps 584 mmHg 83%
    20:00 -1°C° 0 mm 2 mps 584 mmHg 84%
    21:00 -1°C° 0 mm 2 mps 584 mmHg 84%
    22:00 -2°C° 0 mm 2 mps 584 mmHg 85%
    23:00 -2°C° 0.1 mm 2 mps 583 mmHg 85%

    Day after tomorrow, 24 February, Monday

    Time Temperature Precipitation Wind Pressure Humidity
    00:00 -2°C° 0.1 mm 2 mps 583 mmHg 86%
    01:00 -2°C° 0.1 mm 2 mps 583 mmHg 87%
    02:00 -2°C° 0.1 mm 2 mps 583 mmHg 87%
    03:00 -2°C° 0.1 mm 3 mps 583 mmHg 88%
    04:00 -2°C° 0.1 mm 3 mps 583 mmHg 89%
    05:00 -2°C° 0.3 mm 3 mps 583 mmHg 89%
    06:00 -2°C° 0.3 mm 3 mps 583 mmHg 89%
    07:00 -2°C° 0.3 mm 3 mps 583 mmHg 90%
    08:00 -1°C° 0.3 mm 2 mps 584 mmHg 87%
    09:00 +1°C° 0.3 mm 2 mps 585 mmHg 84%
    10:00 +2°C° 0.3 mm 2 mps 586 mmHg 80%
    11:00 +3°C° 0.1 mm 2 mps 586 mmHg 77%
    12:00 +4°C° 0.1 mm 1 mps 586 mmHg 74%
    13:00 +5°C° 0.1 mm 1 mps 587 mmHg 71%
    14:00 +5°C° 0 mm 1 mps 586 mmHg 71%
    15:00 +5°C° 0 mm 1 mps 586 mmHg 72%
    16:00 +4°C° 0 mm 0 mps 585 mmHg 72%
    17:00 +3°C° 0 mm 1 mps 584 mmHg 75%
    18:00 +2°C° 0 mm 1 mps 583 mmHg 77%
    19:00 0°C° 0 mm 1 mps 583 mmHg 79%
    20:00 0°C° 0 mm 1 mps 582 mmHg 81%
    21:00 -1°C° 0 mm 1 mps 582 mmHg 82%
    22:00 -1°C° 0 mm 1 mps 581 mmHg 84%
    23:00 -2°C° 0 mm 0 mps 581 mmHg 85%

    25 February, Tuesday

    Time Temperature Precipitation Wind Pressure Humidity
    00:00 -2°C° 0 mm 0 mps 581 mmHg 85%
    01:00 -2°C° 0 mm 0 mps 581 mmHg 86%
    02:00 -2°C° 0 mm 0 mps 580 mmHg 87%
    03:00 -3°C° 0 mm 0 mps 580 mmHg 88%
    04:00 -2°C° 0 mm 1 mps 579 mmHg 89%
    05:00 -3°C° 0 mm 0 mps 579 mmHg 90%
    06:00 -3°C° 0 mm 0 mps 579 mmHg 90%
    07:00 -3°C° 0 mm 0 mps 578 mmHg 91%
    08:00 -2°C° 0 mm 0 mps 578 mmHg 91%
    09:00 -1°C° 0 mm 1 mps 578 mmHg 90%
    10:00 0°C° 0 mm 1 mps 578 mmHg 90%
    11:00 0°C° 0 mm 1 mps 578 mmHg 90%
    12:00 0°C° 0 mm 1 mps 577 mmHg 90%
    13:00 0°C° 0 mm 1 mps 577 mmHg 90%
    14:00 0°C° 0.1 mm 1 mps 577 mmHg 89%
    15:00 0°C° 0.1 mm 1 mps 576 mmHg 88%
    16:00 0°C° 0.1 mm 1 mps 576 mmHg 87%
    17:00 -1°C° 0.1 mm 1 mps 575 mmHg 89%
    18:00 -1°C° 0.1 mm 1 mps 574 mmHg 91%
    19:00 -3°C° 0.1 mm 0 mps 574 mmHg 94%
    20:00 -2°C° 0 mm 1 mps 574 mmHg 92%
    21:00 -3°C° 0 mm 1 mps 573 mmHg 90%
    22:00 -3°C° 0 mm 1 mps 573 mmHg 88%
    23:00 -3°C° 0 mm 1 mps 573 mmHg 88%

    26 February, Wednesday

    Time Temperature Precipitation Wind Pressure Humidity
    00:00 -3°C° 0 mm 1 mps 572 mmHg 88%
    01:00 -4°C° 0 mm 1 mps 572 mmHg 87%
    02:00 -4°C° 0 mm 1 mps 571 mmHg 86%
    03:00 -4°C° 0 mm 1 mps 571 mmHg 85%
    04:00 -6°C° 0 mm 1 mps 570 mmHg 84%
    05:00 -6°C° 0 mm 1 mps 570 mmHg 82%
    06:00 -6°C° 0 mm 1 mps 569 mmHg 80%
    07:00 -7°C° 0 mm 1 mps 569 mmHg 77%
    08:00 -7°C° 0.1 mm 2 mps 569 mmHg 72%
    09:00 -6°C° 0.1 mm 2 mps 570 mmHg 67%
    10:00 -6°C° 0.1 mm 3 mps 570 mmHg 61%
    11:00 -6°C° 0.3 mm 3 mps 570 mmHg 54%
    12:00 -7°C° 0.3 mm 4 mps 570 mmHg 47%
    13:00 -8°C° 0.3 mm 5 mps 570 mmHg 40%
    14:00 -10°C° 0.2 mm 6 mps 570 mmHg 44%
    15:00 -12°C° 0.2 mm 8 mps 570 mmHg 48%
    16:00 -15°C° 0.2 mm 9 mps 569 mmHg 52%
    17:00 -14°C° 0.1 mm 7 mps 570 mmHg 55%
    18:00 -14°C° 0.1 mm 5 mps 570 mmHg 59%
    19:00 -15°C° 0.1 mm 4 mps 570 mmHg 62%
    20:00 -14°C° 0.1 mm 3 mps 571 mmHg 63%
    21:00 -14°C° 0.1 mm 3 mps 571 mmHg 63%
    22:00 -13°C° 0.1 mm 2 mps 572 mmHg 64%
    23:00 -13°C° 0.2 mm 2 mps 572 mmHg 66%

    27 February, Thursday

    Time Temperature Precipitation Wind Pressure Humidity
    00:00 -13°C° 0.2 mm 2 mps 573 mmHg 68%
    01:00 -11°C° 0.2 mm 1 mps 573 mmHg 70%
    02:00 -11°C° 0.2 mm 1 mps 573 mmHg 71%
    03:00 -11°C° 0.2 mm 1 mps 573 mmHg 72%
    04:00 -12°C° 0.2 mm 1 mps 573 mmHg 73%
    05:00 -12°C° 0.1 mm 1 mps 573 mmHg 73%
    06:00 -12°C° 0.1 mm 1 mps 573 mmHg 73%
    07:00 -12°C° 0.1 mm 1 mps 574 mmHg 73%
    08:00 -11°C° 0 mm 1 mps 574 mmHg 65%
    09:00 -10°C° 0 mm 1 mps 575 mmHg 57%
    10:00 -9°C° 0 mm 1 mps 576 mmHg 50%
    11:00 -8°C° 0 mm 1 mps 576 mmHg 47%
    12:00 -7°C° 0 mm 1 mps 576 mmHg 45%
    13:00 -6°C° 0 mm 1 mps 576 mmHg 42%
    14:00 -6°C° 0 mm 1 mps 576 mmHg 43%
    15:00 -6°C° 0 mm 1 mps 576 mmHg 44%
    16:00 -6°C° 0 mm 1 mps 575 mmHg 45%
    17:00 -7°C° 0 mm 1 mps 575 mmHg 50%
    18:00 -7°C° 0 mm 1 mps 574 mmHg 56%
    19:00 -8°C° 0 mm 0 mps 574 mmHg 61%
    20:00 -8°C° 0.1 mm 0 mps 574 mmHg 63%
    21:00 -8°C° 0.1 mm 0 mps 574 mmHg 64%
    22:00 -8°C° 0.1 mm 0 mps 575 mmHg 66%
    23:00 -8°C° 0.2 mm 0 mps 575 mmHg 68%
    Show more